This demonstration page uses our WeatherBlox Daily Observations layout. Learn more.

Left ArrowRight Arrow

36.17497, -115.13722

Hourly Observations for October 18, 2018

Temp ( °F °C ) Dew Point ( °F °C ) Humidity (%) Winds ( mph kmh ) Pressure ( in mb ) Visibility ( mi km ) Precip ( " mm )
12:53 am 00:53 Clear 56 13.3 32 undefined 40 40 NW 3 6 30.17 1022 10 16.0934 N/A
1:53 am 01:53 Clear 56 13.3 32 undefined 40 40 NW 5 7 30.18 1022 10 16.0934 N/A
2:53 am 02:53 Clear 54 12.2 32 undefined 43 43 N N/A 30.18 1022 10 16.0934 N/A
3:53 am 03:53 Clear 54 12.2 33 0.6 45 45 SW 6 9 30.18 1022 10 16.0934 N/A
4:53 am 04:53 Clear 53 11.7 33 0.6 47 47 N N/A 30.19 1022 10 16.0934 N/A
5:53 am 05:53 Clear 51 10.6 33 0.6 50 50 N 5 7 30.2 1023 10 16.0934 N/A
6:53 am 06:53 Sunny 51 10.6 32 undefined 48 48 N 5 7 30.22 1023 10 16.0934 N/A
7:53 am 07:53 Sunny 55 12.8 32 undefined 42 42 WNW 5 7 30.23 1024 10 16.0934 N/A
8:53 am 08:53 Sunny 62 16.7 33 0.6 34 34 N N/A 30.24 1024 10 16.0934 N/A
9:53 am 09:53 Sunny 63 17.2 34 1.1 34 34 VRB 3 6 30.24 1024 10 16.0934 N/A
10:53 am 10:53 Sunny 68 20 33 0.6 27 27 N N/A 30.22 1024 10 16.0934 N/A
11:53 am 11:53 Sunny 68 20 33 0.6 27 27 VRB 3 6 30.22 1023 10 16.0934 N/A
12:53 pm 12:53 Sunny 70 21.1 33 0.6 26 26 S 6 9 30.19 1022 10 16.0934 N/A
1:53 pm 13:53 Sunny 72 22.2 33 0.6 24 24 ESE 3 6 30.15 1021 10 16.0934 N/A
2:53 pm 14:53 Sunny 73 22.8 32 undefined 22 22 N N/A 30.14 1021 10 16.0934 N/A
3:53 pm 15:53 Sunny 73 22.8 32 undefined 22 22 ESE 5 7 30.12 1020 10 16.0934 N/A
4:53 pm 16:53 Sunny 74 23.3 32 undefined 21 21 E 8 13 30.12 1020 10 16.0934 N/A
5:53 pm 17:53 Sunny 72 22.2 32 undefined 23 23 SE 6 9 30.12 1020 10 16.0934 N/A
6:53 pm 18:53 Clear 71 21.7 33 0.6 25 25 N N/A 30.14 1021 10 16.0934 N/A
7:53 pm 19:53 Clear 68 20 34 1.1 28 28 W 3 6 30.15 1021 10 16.0934 N/A
8:53 pm 20:53 Clear 65 18.3 35 1.7 33 33 N N/A 30.16 1021 10 16.0934 N/A
9:53 pm 21:53 Clear 63 17.2 33 0.6 33 33 NW 8 13 30.18 1022 10 16.0934 N/A
10:53 pm 22:53 Clear 61 16.1 34 1.1 36 36 NNW 8 13 30.18 1022 10 16.0934 N/A
11:53 pm 23:53 Clear 60 15.6 32 undefined 35 35 N 8 13 30.18 1022 10 16.0934 N/A

Powered by AerisWeather